Temperature
21 22 22 23 23 23 23 24 24 24 24 24 24 25 25 24 23 24 24 24 23 23 22 21 20 20 19 19 19 18 18 17 17 16 15 15 15 14 14 14 13 13 13 13
22 22 23 23 22 23 23 24 24 24 24 24 25 25 25 24 23 23 23 24 23 23 22 21 20 20 19 19 19 18 18 17 17 16 16 15 15 14 14 14 13 13 13 13
23 23 22 22 23 23 23 24 24 24 24 24 25 25 25 25 23 22 22 22 23 22 22 21 20 20 19 19 19 19 18 17 17 17 16 15 15 15 14 14 13 13 13 13
23 22 22 23 23 24 23 23 23 24 25 24 25 24 25 25 24 24 23 22 22 21 21 21 20 20 19 19 19 18 18 17 17 17 16 15 15 15 14 14 14 13 13 13
23 23 23 23 23 23 23 23 24 24 25 25 25 25 25 24 24 23 23 22 21 21 20 20 19 19 19 19 19 18 18 18 17 17 16 16 15 15 14 14 14 13 13 13
23 23 23 24 23 23 23 23 24 24 25 24 24 25 23 23 23 23 23 22 21 21 20 20 19 19 19 19 19 19 18 18 18 17 16 16 15 15 14 14 14 13 13 13
23 23 23 23 23 23 24 24 24 24 24 24 24 24 23 22 22 22 22 21 21 20 20 19 19 19 19 19 19 19 18 18 17 17 17 16 16 15 15 14 14 13 14 13
24 23 24 23 24 24 24 25 24 23 23 24 24 24 23 22 21 21 21 20 20 19 19 19 18 19 19 19 19 19 18 18 17 17 16 16 16 15 15 14 14 14 14 13
24 24 23 23 23 24 24 24 24 25 24 24 24 24 23 22 22 21 20 20 19 19 18 18 18 18 18 18 18 18 18 18 17 17 16 16 16 15 15 14 14 14 13 13
25 24 24 23 24 23 24 24 25 25 24 23 23 23 23 21 21 21 20 19 18 18 17 17 17 17 17 18 18 18 18 17 17 17 16 16 16 15 15 15 14 14 14 13
25 25 24 24 24 25 24 24 24 24 24 24 23 23 21 21 20 20 19 18 18 17 17 16 17 17 17 17 17 17 17 17 17 17 16 16 16 15 15 15 14 14 14 13
24 26 25 24 23 23 24 24 25 24 24 24 24 22 20 20 19 19 18 18 17 16 16 16 16 16 17 17 17 17 17 17 17 17 16 16 16 15 15 14 14 14 14 14
24 25 24 24 24 24 24 23 23 24 24 24 23 22 20 20 19 18 17 17 17 16 16 15 15 16 16 16 16 16 16 16 16 16 16 16 15 15 15 14 14 14 14 14
22 25 25 24 24 24 23 22 22 24 24 24 23 22 20 19 19 18 17 17 16 16 15 15 15 15 15 15 15 15 15 16 16 16 16 15 15 14 14 14 14 14 14 14
24 24 24 23 23 23 22 22 22 23 23 23 22 21 20 19 18 17 17 16 16 15 15 15 15 15 15 15 15 15 15 15 15 15 15 15 14 14 14 14 14 14 14 14
23 24 23 22 22 22 21 21 21 21 21 22 21 20 20 18 17 17 16 16 15 15 14 14 14 14 14 14 14 14 14 14 14 14 14 14 14 14 14 14 14 14 14 14
23 23 23 23 22 22 22 21 21 21 21 21 21 20 19 18 17 16 16 15 14 14 13 13 13 13 13 14 14 14 14 14 14 13 13 14 14 14 14 13 13 13 14 13
22 23 23 23 22 21 21 20 20 20 19 20 19 19 18 17 16 15 15 14 14 13 13 13 13 13 13 13 13 13 13 13 13 13 13 13 13 13 13 13 13 13 13 13
20 22 22 23 22 22 20 19 19 20 19 19 19 18 17 16 16 16 14 13 13 12 12 12 12 12 12 12 12 12 12 12 12 12 12 12 12 13 13 13 13 13 13 13
19 20 22 22 22 22 21 19 18 19 19 18 18 17 16 16 18 17 14 13 12 12 12 12 12 12 12 12 12 12 12 12 12 12 12 12 12 12 12 12 13 13 13 13
20 20 21 21 22 22 19 17 18 19 20 17 17 16 16 16 17 15 13 12 12 12 12 12 11 11 11 11 11 11 11 11 11 11 11 11 11 11 12 12 12 12 12 12
21 21 20 21 21 21 17 17 19 19 17 16 16 16 15 15 14 13 12 12 11 11 11 11 11 11 11 11 11 11 11 11 11 11 11 11 11 11 11 11 12 12 12 12
19 20 20 20 20 17 16 17 16 16 16 16 15 15 14 13 13 12 12 11 11 11 11 11 10 10 10 11 10 10 10 10 10 10 10 10 10 10 10 10 11 11 11 11
18 17 18 18 18 16 15 15 14 15 15 14 14 13 13 13 12 12 11 11 11 11 10 10 10 10 10 10 10 10 10 10 10 10 10 10 10 10 10 10 10 10 10 10
17 17 17 18 17 15 15 14 14 13 13 13 13 13 12 12 12 11 11 11 10 10 10 10 10 9 9 10 9 9 9 9 9 9 9 9 9 9 9 9 9 9 10 10
16 17 17 18 17 17 16 14 13 13 13 12 12 12 12 11 11 11 10 10 10 10 10 9 9 9 9 9 9 9 9 9 9 9 9 9 9 9 9 9 9 9 9 9
Wind_Speed
6 6 7 6 3 2 4 4 4 3 1 2 2 1 2 3 1 1 2 5 6 7 6 6 7 8 8 8 8 7 7 6 4 2 2 2 2 2 2 2 3 3 4 5
8 6 5 4 3 3 4 5 4 3 1 1 1 3 6 6 4 3 1 1 3 4 6 6 7 8 9 9 9 8 8 6 5 3 2 2 2 3 3 3 3 4 4 5
5 6 6 5 5 5 5 3 3 2 2 2 3 7 8 7 7 6 5 3 2 1 3 4 5 7 8 9 9 8 8 7 6 5 3 2 2 3 3 3 3 3 4 4
4 5 6 5 4 4 4 1 1 1 3 3 1 6 8 6 8 8 7 5 4 2 0 1 3 5 7 7 7 8 8 7 7 6 5 4 3 4 4 4 3 4 4 4
5 6 5 4 3 2 3 2 1 1 3 5 3 4 6 7 7 8 7 6 5 3 2 1 1 3 4 5 6 7 7 7 7 7 5 5 5 4 4 4 4 5 4 4
4 3 2 2 2 2 4 5 4 3 4 5 3 2 6 6 7 7 7 7 6 5 3 2 1 1 2 3 5 6 7 7 7 7 7 7 6 5 5 5 5 4 4 4
6 5 3 2 4 4 4 4 5 5 4 4 3 3 6 7 7 7 8 8 8 7 5 4 3 1 0 2 3 5 7 7 8 8 8 7 7 6 6 6 4 5 4 4
7 7 3 2 1 2 1 2 1 3 4 5 3 5 6 7 7 7 8 8 9 9 8 6 4 2 1 1 2 3 5 6 7 8 8 7 7 6 5 5 5 5 4 4
4 5 5 3 1 1 2 1 3 1 3 4 5 6 6 7 9 10 10 11 11 10 9 8 6 5 3 2 1 2 3 5 6 7 7 7 7 7 6 6 5 5 5 4
2 6 5 5 4 3 2 2 2 2 3 4 6 5 2 5 8 10 11 12 12 11 10 10 8 7 5 4 3 2 3 4 4 5 6 6 7 7 7 6 6 5 5 5
1 4 5 5 2 2 3 2 1 1 1 2 4 4 4 5 7 8 10 10 10 11 10 10 9 8 7 5 4 3 3 3 4 5 5 6 7 7 7 7 7 6 6 6
1 2 4 3 2 2 1 0 2 2 2 1 1 4 5 5 6 7 8 9 9 10 10 10 10 9 9 8 6 5 5 4 4 4 5 5 6 7 8 8 8 7 7 6
1 3 4 5 5 4 2 1 0 1 2 3 3 4 5 5 6 7 8 8 8 10 10 10 10 10 10 9 8 7 6 6 5 4 5 5 6 7 8 8 8 8 8 7
2 3 4 3 0 2 3 2 3 4 4 3 3 4 4 3 5 6 7 8 8 9 10 11 10 10 10 9 8 8 7 6 5 4 5 5 6 6 7 8 8 8 8 8
2 2 1 1 1 1 1 2 4 4 3 4 3 4 4 3 3 4 5 7 9 10 11 11 11 10 10 10 10 9 8 7 6 5 5 6 7 7 7 7 7 8 8 9
1 2 3 3 3 3 2 3 4 3 2 3 4 4 4 3 3 4 6 7 9 10 10 10 11 11 11 11 10 10 9 9 7 6 6 6 7 7 7 8 8 8 8 9
1 4 4 4 4 4 5 4 6 5 4 5 5 3 5 3 2 3 5 7 8 9 10 10 10 10 10 10 10 10 10 9 8 7 7 7 7 8 8 8 8 9 9 9
3 5 4 4 5 7 2 3 3 5 4 3 2 5 5 3 3 3 4 6 7 9 9 10 10 10 10 10 10 10 9 9 8 8 8 8 8 8 9 9 9 10 10 9
4 5 4 5 6 4 3 4 5 5 4 4 4 5 4 3 4 2 4 5 7 8 8 9 9 9 10 10 10 10 10 10 9 9 10 10 9 9 10 9 9 9 9 10
3 5 6 6 6 5 3 6 4 4 5 6 6 6 4 3 4 1 3 5 6 7 8 9 9 9 9 10 10 10 10 10 10 10 11 11 11 10 11 11 11 9 9 10
6 5 8 9 7 4 5 6 7 6 2 8 6 6 5 3 2 2 3 4 6 7 8 8 8 8 9 10 10 10 11 11 12 11 12 11 11 11 11 11 10 10 9 10
6 6 7 6 8 4 7 7 6 2 6 7 6 5 4 1 1 1 3 4 6 7 8 8 8 8 9 9 10 11 11 12 12 12 12 12 12 11 10 10 11 10 10 10
5 3 3 4 1 5 6 5 3 4 5 5 5 4 3 2 1 2 4 5 6 7 8 8 9 9 9 10 10 12 12 13 13 13 12 12 13 11 11 11 11 10 9 9
4 3 3 3 4 5 5 5 4 4 4 4 4 4 3 3 2 3 4 5 6 7 8 8 9 10 10 11 11 12 13 13 13 14 13 12 12 12 12 10 10 9 9 9
4 5 5 6 5 5 6 7 6 5 4 4 4 4 3 3 3 4 5 6 6 7 8 8 9 10 12 12 12 12 13 14 14 15 13 13 12 12 12 11 10 11 11 10
7 8 7 6 6 6 6 6 7 6 6 5 4 4 4 4 5 5 6 6 7 8 9 9 10 11 12 13 13 13 13 14 14 14 13 11 11 11 11 12 12 11 12 13
Wind_Direction
162 173 168 161 163 139 159 158 142 111 106 223 226 286 37 57 95 218 212 215 217 214 198 190 196 198 197 196 196 192 193 187 186 192 235 267 285 297 302 311 322 313 316 321
159 158 151 149 153 152 159 148 126 115 84 251 101 87 79 71 60 39 23 249 219 210 203 192 197 197 202 199 200 199 198 195 195 195 227 265 295 291 303 295 293 305 314 317
140 124 148 166 159 151 142 130 107 103 146 156 143 105 84 73 64 56 42 27 40 196 213 198 203 204 204 205 202 203 202 199 200 196 210 236 254 265 263 277 292 302 304 306
114 140 167 169 154 168 131 102 174 210 177 110 90 106 71 55 62 50 42 38 34 38 17 199 209 214 212 210 206 208 207 209 204 200 215 242 270 291 302 300 297 293 290 299
125 155 166 157 140 193 107 119 153 162 143 127 79 108 81 59 50 36 32 31 28 26 25 23 216 213 212 208 209 215 213 214 212 215 217 237 261 283 292 291 290 293 297 294
119 156 185 119 115 152 148 152 139 167 176 121 57 102 79 52 30 25 28 30 28 28 31 31 46 144 180 196 208 214 217 218 216 219 224 235 255 267 280 284 292 293 291 288
133 141 151 172 154 155 203 200 165 159 155 115 87 89 75 44 29 23 24 30 33 35 33 31 29 30 196 208 215 218 220 223 220 223 229 236 246 259 267 279 283 287 291 290
141 133 138 172 249 147 178 275 213 161 147 130 134 110 87 49 41 37 38 38 38 37 31 26 19 12 353 265 235 234 231 233 230 233 237 239 241 250 264 267 278 280 287 293
136 114 110 104 96 254 159 105 359 102 130 145 127 120 110 54 44 40 40 39 37 32 29 26 22 18 12 354 310 265 251 244 239 241 243 245 246 247 256 260 265 274 276 284
116 128 128 142 154 63 14 124 200 208 173 156 146 143 108 34 29 32 34 33 31 29 28 27 26 21 16 9 357 324 282 270 258 253 248 247 250 249 252 257 260 267 272 278
234 153 145 161 188 148 157 164 157 134 293 211 169 126 56 46 35 32 34 34 32 29 27 26 25 23 17 12 7 355 330 302 284 272 263 253 251 251 250 251 254 256 263 265
295 194 154 136 85 355 319 325 236 240 172 251 219 111 74 70 53 42 37 35 33 30 29 29 27 26 22 15 5 354 342 329 309 290 279 268 263 254 253 253 252 253 256 261
199 214 177 166 167 161 140 94 261 266 202 215 223 136 99 79 63 48 39 35 33 31 29 28 26 24 19 14 7 359 347 335 326 310 290 281 272 266 263 263 260 257 256 256
273 237 253 247 106 159 166 162 206 227 235 220 216 148 129 91 62 45 38 35 31 28 26 24 20 18 13 9 3 358 352 341 329 316 301 291 289 282 273 270 268 262 258 256
264 230 195 74 90 158 187 187 192 220 251 244 190 164 143 118 79 47 37 33 28 24 20 17 13 10 6 4 0 357 351 344 330 316 306 299 295 295 284 275 267 265 261 258
294 208 187 177 151 165 192 211 196 201 205 181 162 154 118 117 94 53 37 28 22 17 11 8 5 3 359 357 354 351 347 342 331 319 312 310 302 297 290 281 273 268 262 260
213 216 229 222 180 218 236 227 207 192 190 194 203 167 144 146 111 50 33 25 17 9 3 359 357 355 351 349 347 344 341 338 331 324 321 316 309 300 293 285 278 269 261 257
233 218 229 230 215 238 99 92 168 173 165 172 132 130 153 155 145 79 40 20 9 2 356 353 349 347 345 346 345 340 340 339 335 330 325 320 311 303 297 291 281 274 269 261
236 219 220 228 234 240 178 172 176 187 185 178 169 151 149 141 167 127 37 9 0 354 350 347 344 342 342 344 343 339 340 339 335 331 325 321 314 306 297 290 282 276 272 266
181 220 225 220 234 243 153 147 175 198 197 167 173 164 162 182 234 299 15 356 353 351 347 344 341 341 343 343 340 336 336 338 335 329 322 319 315 307 299 291 287 280 270 265
178 195 218 226 236 238 119 142 170 206 175 151 172 172 178 206 315 17 353 344 344 344 342 340 338 339 338 336 334 332 333 333 330 323 318 315 313 308 301 296 290 283 273 267
203 199 207 214 226 219 138 161 193 125 112 149 166 174 185 196 47 351 329 330 332 335 337 336 334 334 333 332 330 328 328 327 324 319 314 312 311 309 305 300 293 285 277 268
219 231 225 224 221 93 156 164 126 133 150 157 169 175 184 191 245 302 316 322 325 327 329 329 328 326 327 328 327 322 324 323 321 317 313 311 309 308 306 303 296 287 279 271
192 197 216 224 205 175 177 177 174 175 172 171 175 180 193 223 264 293 307 315 320 322 324 323 320 322 325 325 321 319 320 319 318 316 313 311 310 309 309 305 297 289 283 276
206 192 214 229 205 193 201 197 187 179 177 178 186 201 221 244 268 286 297 305 312 316 317 317 317 318 318 320 319 319 320 319 315 314 311 310 309 307 304 300 295 287 280 278
208 209 217 234 207 207 197 188 191 191 194 197 203 221 240 256 268 281 290 298 303 309 314 314 314 313 314 317 317 319 319 317 314 313 311 308 306 303 301 300 298 283 271 271
Height
1503 1502 1502 1501 1502 1502 1501 1503 1504 1505 1505 1505 1504 1503 1503 1506 1507 1508 1509 1510 1512 1514 1517 1519 1520 1521 1523 1524 1526 1526 1527 1527 1527 1527 1527 1526 1526 1525 1523 1522 1520 1518 1517 1516
1502 1502 1501 1502 1503 1503 1502 1503 1504 1504 1504 1504 1502 1502 1503 1507 1508 1509 1508 1509 1510 1512 1515 1517 1518 1519 1521 1523 1524 1525 1526 1526 1526 1526 1526 1525 1524 1523 1522 1521 1519 1518 1516 1514
1498 1501 1503 1503 1503 1503 1503 1504 1505 1506 1504 1502 1502 1503 1503 1506 1508 1509 1509 1510 1510 1512 1513 1515 1517 1518 1519 1521 1522 1523 1524 1525 1525 1524 1524 1524 1523 1522 1521 1520 1518 1516 1515 1513
1499 1501 1503 1502 1503 1501 1506 1504 1504 1504 1502 1505 1502 1511 1506 1505 1506 1508 1510 1511 1511 1512 1513 1514 1515 1516 1518 1519 1521 1522 1523 1523 1523 1523 1523 1523 1522 1522 1521 1519 1517 1515 1514 1512
1500 1501 1501 1502 1502 1502 1504 1504 1503 1503 1501 1503 1503 1505 1509 1505 1509 1510 1512 1513 1513 1513 1513 1514 1514 1515 1517 1518 1519 1520 1521 1521 1521 1521 1521 1521 1521 1520 1519 1517 1516 1514 1513 1511
1500 1502 1501 1501 1502 1503 1503 1504 1503 1501 1499 1513 1511 1509 1518 1513 1515 1514 1514 1514 1513 1513 1513 1514 1514 1514 1515 1516 1517 1517 1518 1519 1519 1519 1519 1519 1519 1518 1517 1516 1514 1513 1512 1510
1501 1501 1501 1502 1502 1503 1502 1502 1509 1512 1514 1516 1511 1513 1522 1518 1518 1517 1516 1516 1515 1514 1513 1513 1513 1513 1514 1514 1515 1515 1516 1516 1516 1517 1517 1517 1517 1516 1515 1514 1513 1511 1511 1509
1501 1505 1501 1501 1500 1500 1501 1500 1509 1519 1519 1515 1510 1514 1520 1519 1520 1520 1519 1518 1516 1515 1514 1513 1513 1513 1513 1513 1513 1513 1514 1514 1514 1515 1515 1515 1514 1514 1513 1512 1511 1510 1509 1508
1497 1503 1501 1502 1502 1500 1501 1500 1500 1503 1507 1511 1512 1515 1516 1518 1519 1520 1519 1518 1517 1516 1515 1514 1513 1513 1512 1512 1512 1512 1512 1512 1512 1512 1512 1512 1512 1511 1511 1510 1509 1508 1507 1505
1492 1501 1501 1503 1502 1504 1500 1500 1501 1504 1514 1519 1518 1517 1519 1520 1521 1520 1520 1519 1519 1518 1516 1515 1513 1513 1512 1511 1511 1511 1510 1511 1510 1510 1510 1509 1509 1509 1508 1507 1507 1506 1505 1504
1493 1496 1502 1500 1501 1500 1503 1503 1502 1504 1505 1513 1521 1523 1521 1523 1524 1523 1523 1522 1521 1520 1518 1516 1514 1513 1512 1511 1510 1509 1509 1509 1508 1508 1507 1507 1506 1505 1505 1505 1504 1503 1502 1501
1496 1493 1499 1501 1502 1502 1500 1500 1501 1506 1510 1509 1512 1526 1524 1525 1526 1526 1525 1524 1523 1521 1519 1517 1515 1513 1512 1510 1509 1509 1508 1507 1506 1506 1505 1504 1503 1503 1502 1502 1501 1501 1500 1499
1497 1495 1503 1507 1507 1504 1503 1505 1504 1502 1504 1508 1514 1524 1523 1525 1526 1527 1526 1525 1524 1522 1520 1518 1516 1514 1512 1510 1509 1508 1507 1506 1504 1503 1502 1502 1501 1500 1499 1499 1498 1498 1497 1496
1500 1495 1499 1507 1503 1501 1504 1507 1507 1503 1504 1508 1511 1516 1522 1524 1526 1527 1527 1526 1524 1523 1520 1518 1516 1514 1512 1510 1509 1507 1505 1504 1503 1501 1500 1499 1499 1498 1496 1496 1495 1494 1494 1493
1498 1496 1498 1501 1503 1503 1506 1507 1507 1505 1504 1506 1510 1514 1520 1523 1526 1527 1527 1526 1524 1522 1520 1518 1516 1514 1512 1510 1508 1506 1504 1502 1501 1500 1498 1497 1496 1495 1493 1492 1491 1490 1490 1489
1498 1498 1500 1505 1505 1506 1508 1508 1508 1509 1509 1510 1513 1517 1520 1524 1526 1526 1526 1525 1523 1522 1520 1518 1516 1514 1512 1510 1507 1505 1503 1501 1499 1498 1496 1494 1493 1491 1490 1489 1488 1487 1486 1485
1499 1498 1501 1502 1505 1506 1508 1506 1507 1509 1509 1510 1512 1515 1520 1523 1524 1525 1525 1524 1523 1522 1520 1518 1516 1513 1511 1509 1506 1504 1502 1499 1497 1495 1493 1491 1490 1488 1487 1485 1484 1482 1481 1481
1501 1499 1499 1501 1506 1512 1507 1507 1507 1509 1511 1512 1514 1517 1520 1522 1524 1525 1524 1524 1522 1521 1519 1517 1515 1512 1510 1508 1505 1503 1500 1497 1495 1493 1491 1488 1486 1484 1483 1481 1480 1478 1478 1476
1503 1501 1501 1501 1503 1503 1507 1507 1508 1509 1511 1513 1514 1517 1520 1521 1521 1522 1523 1522 1521 1520 1518 1515 1513 1511 1509 1506 1503 1501 1498 1495 1493 1490 1488 1485 1483 1480 1478 1477 1475 1474 1472 1471
1505 1502 1500 1502 1504 1504 1500 1504 1508 1509 1510 1512 1514 1516 1518 1519 1516 1519 1521 1520 1519 1517 1515 1513 1511 1509 1506 1504 1501 1499 1496 1493 1490 1487 1485 1482 1480 1477 1474 1472 1470 1469 1467 1466
1501 1502 1501 1499 1499 1494 1502 1506 1508 1510 1504 1510 1512 1514 1516 1516 1517 1519 1519 1518 1517 1515 1513 1511 1509 1506 1504 1501 1499 1496 1493 1490 1487 1484 1481 1478 1476 1473 1470 1467 1465 1463 1462 1460
1494 1496 1497 1497 1499 1499 1503 1504 1504 1503 1507 1509 1511 1513 1515 1516 1517 1517 1517 1516 1514 1513 1510 1508 1506 1504 1501 1499 1496 1493 1490 1487 1484 1480 1477 1474 1471 1469 1466 1462 1460 1458 1456 1454
1495 1494 1492 1493 1496 1499 1502 1502 1504 1506 1507 1509 1511 1512 1514 1514 1515 1515 1514 1513 1512 1510 1508 1506 1503 1501 1498 1496 1493 1490 1487 1483 1480 1477 1473 1470 1467 1464 1461 1458 1455 1453 1451 1449
1495 1499 1497 1496 1496 1500 1502 1503 1504 1505 1507 1508 1510 1511 1512 1512 1512 1512 1511 1510 1509 1507 1505 1503 1500 1498 1495 1492 1489 1486 1483 1480 1476 1473 1469 1466 1463 1459 1456 1453 1451 1448 1446 1444
1493 1496 1494 1493 1496 1499 1500 1501 1503 1504 1505 1507 1508 1509 1509 1510 1509 1509 1508 1507 1506 1504 1501 1499 1497 1494 1491 1488 1485 1482 1479 1475 1472 1468 1465 1461 1458 1454 1451 1448 1445 1442 1440 1439
1491 1491 1491 1488 1491 1493 1496 1498 1500 1502 1503 1504 1505 1506 1506 1507 1506 1506 1505 1503 1502 1500 1498 1495 1493 1490 1487 1484 1481 1478 1475 1471 1468 1464 1460 1456 1453 1449 1446 1442 1439 1436 1434 1431